x

Silver Bay, Mn (slvm5) Weather Station

12:17am - Fri 26th May 2017 All times are CDT. -5 hours from GMT.

  • Wind
    8mph, 14mph gusts
  • Air Temp 54°f
  • Sea Pressure 1007.5mb
  • Silver Bay, Mn
  • Silver Bay, Mn

More Historic Weather Station data

Upgrade to MSW Pro to gain access to the past 30 days of data for over 8000 Wavebouys and Weather Stations around the globe.

Join Pro

Comparision Forecast

View Surf forecast
   
Fri 05/26 12:17am 8 14 mph 1007.5mb 54f
Thu 05/25 11:40pm 7 10 mph 1007.1mb 52f
11:30pm 7 9 mph 1007.1mb 52f
11:20pm 6 8 mph 1007.5mb 51f
11:16pm 6 14 mph 1007.5mb 50f
11:10pm 6 8 mph 1007.5mb 50f
11:00pm 6 10 mph 1007.5mb 52f
10:40pm 9 14 mph 1007.5mb 52f
10:30pm 7 13 mph 1007.5mb 52f
10:20pm 8 10 mph 1007.5mb 52f
10:16pm 7 13 mph 1007.5mb 53f
10:10pm 7 11 mph 1007.5mb 53f
10:00pm 6 10 mph 1007.5mb 54f
9:40pm 6 10 mph 1007.1mb 53f
9:30pm 7 11 mph 1007.1mb 52f
9:20pm 9 13 mph 1006.8mb 52f
9:15pm 8 15 mph 1006.8mb 52f
9:10pm 8 13 mph 1006.8mb 52f
9:00pm 9 13 mph 1006.4mb 52f
8:40pm 10 15 mph 1006.8mb 50f
8:30pm 9 11 mph 1006.8mb 53f
8:20pm 7 11 mph 1006.4mb 53f
8:15pm 8 14 mph 1006.4mb 53f
8:10pm 8 13 mph 1006.4mb 53f
8:00pm 8 14 mph 1006.4mb 53f
7:40pm 9 14 mph 1006.4mb 53f
7:30pm 7 13 mph 1006.4mb 53f
7:20pm 8 14 mph 1006.4mb 53f
7:15pm 8 16 mph 1006.4mb 52f
7:10pm 8 14 mph 1006.4mb 52f
7:00pm 9 13 mph 1006.4mb 53f
6:40pm 7 13 mph 1006.1mb 53f
6:30pm 8 14 mph 1006.4mb 53f
6:20pm 10 16 mph 1006.4mb 53f
6:14pm 9 16 mph 1006.4mb 53f
6:10pm 9 16 mph 1006.4mb 53f
6:00pm 8 15 mph 1006.4mb 54f
5:40pm 10 16 mph 1006.4mb 55f
5:30pm 8 14 mph 1006.8mb 55f
5:20pm 10 15 mph 1006.4mb 54f
5:14pm 9 18 mph 1006.4mb 54f
5:10pm 9 15 mph 1006.4mb 54f
5:00pm 11 18 mph 1006.4mb 52f
4:40pm 10 16 mph 1006.4mb 54f
4:30pm 13 16 mph 1006.4mb 53f
4:20pm 10 15 mph 1006.8mb 54f
4:13pm 8 17 mph 1006.8mb 55f
4:10pm 9 15 mph 1006.8mb 55f
4:00pm 8 17 mph 1006.8mb 52f
3:40pm 9 16 mph 1006.8mb 53f
3:30pm 11 17 mph 1006.8mb 52f
3:20pm 11 16 mph 1006.8mb 53f
3:13pm 11 18 mph 1006.8mb 52f
3:10pm 10 17 mph 1007.1mb 52f
3:00pm 13 18 mph 1007.1mb 52f
2:40pm 13 16 mph 1007.1mb 52f
2:30pm 8 15 mph 1007.1mb 53f
2:20pm 10 17 mph 1007.5mb 53f
2:13pm 7 16 mph 1007.1mb 53f
2:10pm 8 15 mph 1007.5mb 53f
2:00pm 9 15 mph 1007.5mb 53f
1:40pm 9 16 mph 1007.5mb 53f
1:30pm 10 15 mph 1007.5mb 52f
1:20pm 11 15 mph 1007.8mb 51f
1:12pm 11 17 mph 1007.8mb 50f
1:10pm 11 15 mph 1007.8mb 50f
1:00pm 10 14 mph 1007.8mb 50f
12:40pm 10 14 mph 1007.8mb 51f
12:30pm 9 15 mph 1007.8mb 52f
12:20pm 11 17 mph 1007.8mb 51f
12:12pm 11 17 mph 1007.8mb 50f
12:10pm 13 16 mph 1007.8mb 50f
12:00pm 11 15 mph 1007.8mb 52f
11:40am 11 16 mph 1007.8mb 51f
11:30am 10 17 mph 1007.8mb 51f
11:20am 13 17 mph 1007.8mb 51f
11:11am 10 15 mph 1007.8mb 51f
11:10am 10 15 mph 1007.8mb 51f
11:00am 11 14 mph 1008.1mb 51f
10:40am 9 13 mph 1008.1mb 50f
10:30am 8 13 mph 1008.5mb 50f
10:20am 9 13 mph 1008.5mb 48f
10:11am 10 14 mph 1008.5mb 49f
10:10am 10 14 mph 1008.5mb 49f
10:00am 7 13 mph 1008.5mb 49f
9:40am 9 14 mph 1008.5mb 48f
9:30am 10 13 mph 1008.5mb 48f
9:20am 9 13 mph 1008.5mb 47f
9:11am 10 15 mph 1008.5mb 47f
9:10am 10 14 mph 1008.5mb 47f
9:00am 11 15 mph 1008.5mb 49f
8:40am 10 15 mph 1008.5mb 48f
8:30am 10 15 mph 1008.5mb 49f
8:20am 10 14 mph 1008.5mb 49f
8:10am 9 16 mph 1008.8mb 49f
8:00am 9 14 mph 1008.8mb 49f
7:40am 7 11 mph 1008.5mb 49f
7:30am 7 10 mph 1008.5mb 48f
7:20am 8 11 mph 1008.5mb -
7:10am 6 11 mph 1008.8mb 48f
7:00am 7 10 mph 1008.8mb 48f
6:40am 7 11 mph 1008.8mb 48f
6:30am 7 9 mph 1008.5mb 48f
6:20am 6 9 mph 1008.5mb 48f
6:10am 6 9 mph 1008.1mb 47f
6:09am 6 9 mph 1008.1mb 47f
6:00am 6 9 mph 1008.1mb 46f
5:40am 6 9 mph 1008.1mb 46f
5:30am 6 8 mph 1008.1mb 46f
5:20am 7 10 mph 1008.1mb 45f
5:10am 7 9 mph 1008.1mb 45f
5:09am 6 10 mph 1008.1mb 45f
5:00am 6 9 mph 1008.1mb 45f
4:40am 7 10 mph 1007.8mb 45f
4:30am 6 9 mph 1007.8mb 46f
4:20am 7 10 mph 1007.8mb 46f
4:10am 7 10 mph 1007.8mb 46f
4:08am 7 10 mph 1007.8mb 46f
4:00am 7 10 mph 1007.8mb 46f
3:40am 7 9 mph 1007.8mb 46f
3:30am 7 9 mph 1008.1mb 46f
3:20am 7 10 mph 1008.1mb 46f
3:10am 7 9 mph 1007.8mb 46f
3:08am 7 9 mph 1007.8mb 47f
3:00am 7 8 mph 1007.8mb 47f
2:40am 6 9 mph 1007.8mb 47f
2:30am 7 9 mph 1007.8mb 47f
2:20am 6 8 mph 1007.8mb 46f
2:10am 6 8 mph 1007.8mb 47f
2:08am 6 8 mph 1007.8mb 47f
2:00am 6 8 mph 1007.8mb 47f
1:40am 5 8 mph 1007.8mb 47f
1:30am 6 8 mph 1007.8mb 47f
1:20am 6 7 mph 1007.8mb 47f
1:10am 6 7 mph 1007.8mb 47f
1:07am 6 7 mph 1008.1mb 47f
1:00am 6 6 mph 1008.1mb 47f
12:40am 7 8 mph 1008.1mb 47f
12:30am 6 8 mph 1008.1mb 47f
12:20am 7 7 mph 1008.1mb 47f
12:10am 6 7 mph 1008.1mb 47f
12:07am 5 8 mph 1008.1mb 47f
12:00am 6 8 mph 1008.1mb 47f
Wed 05/24 11:50pm 6 8 mph 1008.1mb 48f
11:40pm 6 7 mph 1008.1mb -
11:30pm 6 7 mph 1008.1mb 48f
11:20pm 5 7 mph 1008.1mb 47f
11:10pm 5 8 mph 1008.1mb -
11:06pm 6 8 mph 1008.1mb 47f
11:00pm 7 8 mph 1008.1mb 47f
10:50pm 7 8 mph 1008.1mb 47f
10:40pm 7 8 mph 1008.5mb 47f
10:30pm 6 9 mph 1008.5mb 47f
10:20pm 6 9 mph 1008.5mb -
10:10pm 6 8 mph 1008.5mb 47f
10:06pm 6 8 mph 1008.5mb 47f
10:00pm 6 8 mph 1008.8mb 47f
9:50pm 6 7 mph 1008.8mb 47f
9:40pm 6 7 mph 1008.5mb 47f
9:30pm 6 7 mph 1008.5mb 47f
9:20pm 6 7 mph 1008.5mb 46f
9:10pm 6 8 mph 1008.5mb 46f
9:05pm 6 9 mph 1008.5mb 46f
9:00pm 7 8 mph 1008.5mb 46f
8:50pm 6 8 mph 1008.1mb 45f
8:40pm 6 9 mph 1008.1mb 46f
8:30pm 7 9 mph 1008.5mb 46f
8:20pm 6 8 mph 1008.5mb 46f
8:10pm 5 8 mph 1008.5mb 46f
8:05pm 5 7 mph 1008.5mb 46f
8:00pm 6 10 mph 1008.5mb 46f
7:50pm 7 9 mph 1008.5mb 46f
7:40pm 8 10 mph 1008.5mb 47f
7:30pm 8 10 mph 1008.5mb 46f
7:20pm 7 9 mph 1008.8mb 47f
7:10pm 5 11 mph 1008.8mb 48f
7:05pm 7 11 mph 1008.5mb 48f
7:00pm 6 13 mph 1008.5mb 47f
6:50pm 8 13 mph 1008.8mb 48f
6:40pm 7 10 mph 1008.8mb 48f
6:30pm 6 13 mph 1008.8mb 47f
6:20pm 7 11 mph 1008.8mb 47f
6:14pm  -  mph 1008.8mb 48f
6:10pm 8 11 mph 1008.8mb 48f
6:04pm 7 13 mph 1008.8mb 48f
6:00pm 6 10 mph 1008.8mb 48f
5:50pm 9 11 mph 1008.8mb 46f
5:40pm 9 13 mph 1008.8mb 46f
5:30pm 9 11 mph 1008.8mb 47f
5:20pm 10 14 mph 1009.1mb 46f
5:10pm 9 14 mph 1009.1mb 45f
5:04pm 10 16 mph 1009.1mb 46f
5:00pm 11 14 mph 1009.1mb 46f
4:50pm 9 14 mph 1009.5mb 46f
4:40pm 11 15 mph 1009.1mb 45f
4:30pm 10 15 mph 1009.1mb 45f
4:20pm 11 16 mph 1009.1mb 46f
4:10pm 11 15 mph 1009.1mb 48f
4:03pm 11 16 mph 1009.1mb 49f
4:00pm 10 15 mph 1009.1mb 49f
3:50pm 9 15 mph 1009.1mb 49f
3:40pm 10 14 mph 1009.1mb 47f
3:30pm 11 16 mph 1009.1mb 48f
3:20pm 11 16 mph 1009.1mb 49f
3:10pm 10 16 mph 1009.1mb 49f
3:03pm 11 16 mph 1009.1mb 50f
3:00pm 11 17 mph 1009.1mb 50f
2:40pm 9 14 mph 1009.5mb 53f
2:30pm 9 14 mph 1009.5mb 52f
2:20pm 9 15 mph 1009.5mb 52f
2:10pm 8 16 mph 1009.8mb 53f
2:02pm 10 18 mph 1009.8mb 52f
2:00pm 10 15 mph 1009.8mb 52f
1:50pm 13 17 mph 1009.8mb 50f
1:40pm 11 16 mph 1009.8mb 52f
1:30pm 10 18 mph 1009.8mb 52f
1:20pm 10 17 mph 1009.5mb 52f
1:10pm 9 15 mph 1009.8mb 52f
1:02pm 10 16 mph 1009.8mb 52f
1:00pm 9 15 mph 1009.8mb 52f
12:50pm 9 16 mph 1009.8mb 51f
12:40pm 13 16 mph 1009.8mb 52f
12:30pm 9 15 mph 1010.2mb 51f
12:20pm 10 16 mph 1010.2mb 51f
12:10pm 10 15 mph 1010.2mb 50f
12:02pm 11 16 mph 1010.2mb 50f
12:00pm 13 16 mph 1010.2mb 50f
11:50am 11 15 mph 1009.8mb 51f
11:40am 8 15 mph 1010.2mb 51f
11:30am 6 13 mph 1010.2mb 53f
11:20am 7 13 mph 1010.2mb 51f
11:10am 5 15 mph 1010.5mb 51f
11:01am 9 17 mph 1010.5mb 50f
11:00am 9 14 mph 1010.5mb 50f
10:50am 8 14 mph 1010.5mb 50f
10:40am 9 13 mph 1010.5mb 50f
10:30am 9 14 mph 1010.5mb 49f
10:20am 9 17 mph 1010.8mb 49f
10:10am 10 17 mph 1010.5mb 49f
10:01am 10 17 mph 1010.5mb 50f
10:00am 10 17 mph 1010.8mb 50f
9:50am 9 16 mph 1010.8mb 50f
9:40am 10 16 mph 1010.8mb 50f
9:30am 9 17 mph 1010.8mb 50f
9:20am 11 17 mph 1010.8mb 50f
9:10am 11 17 mph 1010.8mb 51f
9:00am 10 18 mph 1010.8mb 52f
8:50am 10 17 mph 1010.8mb 53f
8:40am 9 14 mph 1010.8mb 53f
8:30am 9 14 mph 1010.5mb 52f
8:20am 7 10 mph 1010.8mb 52f
8:10am 9 14 mph 1010.5mb 52f
8:00am 7 10 mph 1010.5mb 52f
7:50am 8 13 mph 1010.5mb 51f
7:40am 7 11 mph 1010.5mb 51f
7:30am 6 10 mph 1010.5mb 50f
7:20am 6 9 mph 1010.5mb 50f
7:10am 5 10 mph 1010.5mb 50f
7:00am 7 11 mph 1010.5mb 50f
6:50am 7 13 mph 1010.5mb 50f
6:40am 6 9 mph 1010.5mb 49f
6:30am 6 10 mph 1010.5mb 50f
6:20am 7 11 mph 1010.5mb 50f
6:10am 8 11 mph 1010.5mb 51f
6:00am 7 10 mph 1010.5mb 50f
5:50am 7 10 mph 1010.2mb 49f
5:40am 7 10 mph 1010.5mb 49f
5:30am 8 10 mph 1010.5mb 48f
5:20am 7 11 mph 1010.5mb 49f
5:10am 7 11 mph 1010.2mb 49f
5:00am 9 15 mph 1010.2mb 49f
4:40am 8 11 mph 1010.5mb 49f
4:30am 9 13 mph 1010.5mb 49f
4:20am 9 14 mph 1010.5mb 49f
4:10am 8 15 mph 1010.5mb 49f
4:00am 9 15 mph 1010.5mb 49f
3:50am 8 13 mph 1010.5mb 48f
3:40am 8 11 mph 1010.5mb 49f
3:30am 7 11 mph 1010.5mb 49f
3:20am 8 11 mph 1010.5mb 48f
3:10am 7 11 mph 1010.5mb 49f
3:00am 8 10 mph 1010.5mb 49f
2:50am 7 9 mph 1010.5mb 49f
2:40am 6 10 mph 1010.5mb 49f
2:30am 7 8 mph 1010.8mb 49f
2:20am 6 7 mph 1010.8mb 50f
2:10am 5 7 mph 1010.8mb 49f
2:00am 5 7 mph 1011.2mb 49f
1:50am 5 8 mph 1011.2mb 49f
1:40am 5 9 mph 1011.2mb 50f
1:30am 7 10 mph 1011.2mb 49f
1:20am 7 8 mph 1011.5mb 49f
1:10am 7 9 mph 1011.5mb 49f
1:00am 7 8 mph 1011.5mb 49f
12:50am 6 9 mph 1011.5mb 49f
12:40am 8 9 mph 1011.5mb 49f
12:30am 7 8 mph 1011.9mb 49f
12:20am 5 6 mph 1012.2mb 49f
12:10am 3 6 mph 1012.2mb 49f
12:04am 5 8 mph 1012.2mb 49f
12:00am 3 5 mph 1012.2mb 49f
Tue 05/23 11:50pm 3 6 mph 1012.2mb 49f
11:40pm 3 6 mph 1012.2mb 49f
11:30pm 5 7 mph 1012.2mb 48f
11:20pm 5 6 mph 1012.2mb 49f
11:10pm 5 9 mph 1012.2mb 49f
11:04pm 7 10 mph 1012.2mb 49f
11:00pm 6 10 mph 1012.2mb 49f
10:50pm 7 10 mph 1012.2mb 49f
10:40pm 8 9 mph 1012.5mb 48f
10:30pm 6 9 mph 1012.5mb 48f
10:20pm 7 8 mph 1012.5mb 48f
10:10pm 6 8 mph 1012.5mb 48f
10:04pm 5 6 mph 1012.5mb 48f
10:00pm 5 5 mph 1012.5mb 48f
9:50pm 3 5 mph 1012.5mb 48f
9:40pm 3 3 mph 1012.9mb 47f
9:30pm 3 5 mph 1012.5mb 47f
9:20pm 3 5 mph 1012.5mb 47f
9:10pm 3 5 mph 1012.9mb 47f
9:03pm 3 5 mph 1012.9mb 46f
9:00pm 3 5 mph 1012.9mb 46f
8:50pm  -  2 mph 1012.9mb 45f
8:40pm 2 3 mph 1012.9mb 46f
8:30pm 2 3 mph 1012.9mb 47f
8:20pm 2 3 mph 1012.9mb 47f
8:10pm  -  3 mph 1012.9mb 48f
8:03pm 3 7 mph 1012.9mb 48f
8:00pm 3 5 mph 1012.9mb 48f
7:50pm 3 5 mph 1012.9mb 47f
7:40pm 2 3 mph 1012.9mb 48f
7:30pm 3 6 mph 1012.9mb 48f
7:20pm 5 7 mph 1012.9mb 47f
7:10pm 3 6 mph 1012.9mb 47f
7:02pm 5 9 mph 1012.9mb 47f
7:00pm 3 8 mph 1012.9mb 47f
6:50pm 5 8 mph 1012.9mb 47f
6:40pm 3 8 mph 1012.9mb 47f
6:30pm 5 9 mph 1012.9mb 47f
6:20pm 7 9 mph 1012.9mb 47f
6:10pm 6 9 mph 1012.9mb 47f
6:02pm 6 9 mph 1012.9mb 46f
6:00pm 3 8 mph 1012.9mb 46f
5:50pm 6 9 mph 1012.9mb 47f
5:40pm 5 8 mph 1012.5mb 47f
5:30pm 6 8 mph 1012.5mb 48f
5:20pm 5 8 mph 1012.5mb 47f
5:10pm 6 9 mph 1012.5mb 47f
5:02pm 6 10 mph 1012.5mb 47f
5:00pm 5 9 mph 1012.5mb 47f
4:50pm 6 10 mph 1012.9mb 46f
4:40pm 8 9 mph 1012.5mb 47f
4:30pm 6 9 mph 1012.5mb 47f
4:20pm 7 10 mph 1012.5mb 48f
4:10pm 6 10 mph 1012.5mb 46f
4:01pm 5 10 mph 1012.9mb 46f
4:00pm 5 9 mph 1012.5mb 46f
3:50pm 6 9 mph 1012.5mb 46f
3:40pm 7 9 mph 1012.5mb 46f
3:30pm 7 10 mph 1012.5mb 48f
3:20pm 5 9 mph 1012.5mb 46f
3:10pm 5 9 mph 1012.5mb 47f
3:01pm 6 9 mph 1012.5mb 47f
3:00pm 6 9 mph 1012.5mb 47f
2:50pm 5 9 mph 1012.5mb 47f
2:40pm 6 8 mph 1012.5mb 48f
2:30pm 6 8 mph 1012.5mb 47f
2:20pm 5 8 mph 1012.9mb 47f
2:10pm 5 8 mph 1012.9mb 47f
2:00pm 8 9 mph 1012.9mb 47f
1:50pm 3 8 mph 1012.9mb 48f
1:40pm 6 8 mph 1012.9mb 47f
1:30pm 2 7 mph 1012.5mb 48f
1:20pm 5 8 mph 1012.5mb 48f
1:10pm 5 8 mph 1012.9mb 49f
1:00pm 3 8 mph 1012.9mb 48f
12:50pm 5 7 mph 1012.9mb 47f
12:40pm 3 7 mph 1012.9mb 47f
12:30pm 3 7 mph 1012.9mb 46f
12:20pm 2 6 mph 1012.9mb 45f
12:10pm 3 6 mph 1012.9mb 45f
12:00pm 5 6 mph 1012.9mb 46f
11:50am 3 6 mph 1012.9mb 46f
11:40am 3 7 mph 1012.9mb 46f
11:30am 5 7 mph 1012.9mb 46f
11:20am 5 9 mph 1012.9mb 46f
11:10am 2 8 mph 1012.9mb 46f
11:00am 5 7 mph 1012.9mb 46f
10:50am 5 7 mph 1012.9mb 46f
10:40am 3 9 mph 1012.9mb 45f
10:30am 7 10 mph 1012.9mb 44f
10:20am 5 8 mph 1012.5mb 48f
10:10am 5 7 mph 1012.5mb 48f
10:04am 5 10 mph 1012.2mb 47f
10:00am 7 9 mph 1012.2mb 47f
9:50am 6 10 mph 1012.2mb 47f
9:40am 6 9 mph 1012.2mb 47f
9:30am 5 8 mph 1012.2mb 47f
9:20am 6 9 mph 1012.2mb 47f
9:10am 6 9 mph 1011.9mb 47f
9:04am 7 14 mph 1011.9mb 47f
9:00am 6 9 mph 1011.9mb 47f
8:50am 8 13 mph 1011.5mb 46f
8:40am 8 14 mph - 47f
8:30am 8 11 mph - 47f
8:20am 8 11 mph - 47f
8:10am 8 11 mph - 46f
8:03am 7 13 mph 1020.3mb 45f
8:00am 9 13 mph - 45f
7:50am 9 11 mph - 44f
7:40am 5 7 mph 1011.2mb 44f
7:30am 3 6 mph 1011.2mb 44f
7:20am 3 5 mph 1011.2mb 44f
7:10am 2 2 mph 1010.8mb 43f
7:03am  -  7 mph 1010.8mb 43f
7:00am  -  0 mph 1010.8mb 43f
6:50am  -  1 mph 1010.8mb 43f
6:40am  -  6 mph 1010.8mb 44f
6:30am 5 7 mph 1010.5mb 44f
6:20am 3 5 mph 1010.5mb 44f
6:10am 2 6 mph 1010.5mb 42f
6:02am 5 10 mph 1010.2mb 44f
6:00am 3 7 mph 1010.2mb 44f
5:50am 3 7 mph 1010.2mb 43f
5:40am 3 5 mph 1010.2mb 43f
5:30am 2 6 mph 1010.2mb 45f
5:20am 3 7 mph 1010.2mb 43f
5:10am 2 11 mph 1010.2mb 48f
5:02am 9 13 mph 1010.2mb 50f
5:00am 9 13 mph 1010.2mb 50f
4:50am 9 13 mph 1009.8mb 51f
4:40am 9 13 mph 1009.8mb 50f
4:30am 9 13 mph 1009.8mb 50f
4:20am 9 13 mph 1009.8mb 50f
4:10am 9 11 mph 1009.5mb 50f
4:02am 9 16 mph 1009.5mb 50f
4:00am 9 15 mph 1009.5mb 50f
3:50am 10 15 mph 1009.5mb 50f
3:40am 13 16 mph 1009.5mb 50f
3:30am 11 15 mph 1009.5mb 50f
3:20am 11 16 mph 1009.5mb 51f
3:10am 11 16 mph 1009.1mb 50f
3:01am 13 16 mph 1009.5mb 51f
3:00am 13 15 mph 1009.5mb 51f
2:50am 11 15 mph 1009.5mb 51f
2:40am 13 16 mph 1009.5mb 51f
2:30am 11 15 mph 1009.5mb 51f
2:20am 7 11 mph 1009.5mb 50f
2:10am 6 11 mph 1009.5mb 50f
2:01am 7 13 mph 1009.5mb 50f
2:00am 7 11 mph 1009.5mb 50f
1:50am 9 13 mph 1009.5mb 51f
1:40am 7 13 mph 1009.5mb 51f
1:30am 2 10 mph 1009.8mb 49f
1:20am 2 6 mph 1009.8mb 48f
1:10am  -  1 mph 1009.8mb 49f
1:00am  -  2 mph 1009.8mb 48f
12:50am  -  2 mph 1009.8mb 48f
12:40am 1 6 mph 1009.8mb 49f
12:30am 2 7 mph 1009.8mb 49f
12:20am  -  7 mph 1009.8mb 50f
12:10am 7 10 mph 1009.8mb 50f
12:00am  -  1 mph 1009.8mb 49f
Mon 05/22 11:50pm  -  2 mph 1009.8mb 48f
11:40pm  -  2 mph 1009.8mb 47f
11:30pm  -  2 mph 1009.8mb 47f
11:20pm  -  3 mph 1009.8mb 44f
11:10pm 3 3 mph 1010.2mb 47f
11:00pm  -  0 mph 1009.8mb 48f
10:50pm  -  1 mph 1009.8mb 48f
10:40pm 1 3 mph 1009.8mb 48f
10:30pm  -  3 mph 1009.8mb 48f
10:20pm 3 5 mph 1009.8mb 44f
10:10pm 3 3 mph 1009.8mb 45f
10:00pm  -  2 mph 1009.8mb 43f
9:40pm 3 5 mph 1009.8mb 43f
9:30pm 1 3 mph 1009.8mb 51f
9:21pm 2 8 mph 1009.8mb 48f
9:20pm 2 3 mph 1009.8mb 48f
9:10pm 2 3 mph 1009.8mb 48f
9:00pm  -  1 mph 1009.5mb 47f
8:50pm 1 5 mph 1009.5mb 47f
8:40pm 5 7 mph 1009.5mb 46f
8:30pm 6 8 mph 1009.5mb 46f
8:21pm 5 16 mph 1009.5mb 52f
8:20pm 5 7 mph 1009.1mb 52f
8:10pm 3 6 mph 1009.1mb 52f
8:00pm 5 8 mph 1009.1mb 53f
7:50pm 5 11 mph 1008.8mb 53f
7:40pm 8 13 mph 1008.8mb 47f
7:30pm 13 16 mph 1008.8mb 43f
7:20pm 10 11 mph 1008.8mb 42f
7:10pm 10 11 mph 1008.8mb 42f
7:00pm 9 10 mph 1008.5mb 43f
6:50pm 10 16 mph 1008.5mb 43f
6:40pm 14 15 mph 1008.5mb 43f
6:30pm 13 16 mph 1008.5mb 43f
6:20pm 16 16 mph 1008.5mb 44f
6:10pm 9 14 mph 1008.1mb 44f
6:00pm 13 15 mph 1008.1mb 44f
5:50pm 13 15 mph 1008.5mb 45f
5:40pm 13 17 mph 1008.5mb 53f
5:30pm 5 9 mph 1008.1mb 46f
5:20pm 7 16 mph 1008.5mb -
5:10pm 15 18 mph 1008.1mb -
5:00pm 11 16 mph 1008.1mb -
4:50pm 8 15 mph 1008.1mb -
4:40pm 8 16 mph 1008.1mb 55f
4:30pm 11 16 mph 1008.1mb 55f
4:20pm 11 16 mph 1008.5mb 55f
4:18pm 10 20 mph 1008.1mb 55f
4:10pm 11 15 mph 1008.1mb 55f
4:00pm 13 20 mph 1008.1mb 53f
3:50pm 9 17 mph 1008.1mb 55f
3:40pm 11 18 mph 1007.8mb 54f
3:30pm 8 15 mph 1008.1mb 53f
3:20pm 10 14 mph 1008.1mb 52f
3:18pm 9 17 mph 1008.1mb 49f
3:10pm 6 14 mph 1008.1mb -
3:00pm 10 15 mph 1008.1mb 53f
2:50pm 13 17 mph 1007.8mb 55f
2:40pm 11 15 mph 1007.8mb 55f
2:30pm 8 11 mph 1007.8mb 55f
2:20pm 9 13 mph 1007.8mb 53f
2:17pm 7 16 mph 1007.8mb 53f
2:10pm 7 15 mph 1007.8mb 52f
2:00pm 5 10 mph 1007.5mb 45f
1:50pm 9 14 mph 1007.5mb 43f
1:40pm 11 16 mph 1007.5mb 42f
1:30pm 10 14 mph 1007.5mb 42f
1:20pm 11 14 mph 1007.5mb 42f
1:10pm 9 16 mph 1007.5mb 46f
1:00pm 9 15 mph 1007.5mb 54f
12:50pm 10 14 mph 1007.1mb 53f
12:40pm 11 17 mph 1007.1mb 52f
12:30pm 13 20 mph 1007.1mb 53f
12:20pm 10 23 mph 1007.1mb 52f
12:17pm 15 23 mph 1007.1mb 52f
12:10pm 15 21 mph 1007.1mb 51f
12:00pm 13 18 mph 1007.1mb 47f
11:50am 14 16 mph 1007.1mb 44f
11:40am 13 16 mph 1006.8mb -
11:30am 13 17 mph 1006.8mb -
11:20am 10 17 mph 1006.8mb 51f
11:16am 13 20 mph 1006.8mb 52f
11:10am 15 20 mph 1006.8mb 52f
11:00am 8 15 mph 1006.8mb 51f
10:50am 9 15 mph 1006.8mb 45f
10:40am 11 14 mph 1006.8mb 46f
10:30am 11 15 mph 1006.8mb 44f
10:20am 11 14 mph 1006.8mb 44f
10:16am 10 20 mph 1006.8mb 46f
10:10am 9 16 mph 1006.8mb 49f
10:00am 10 20 mph 1006.8mb 46f
9:50am 11 14 mph 1006.8mb 47f
9:40am 10 13 mph 1006.8mb 46f
9:30am 10 14 mph 1006.8mb 42f
9:20am 11 14 mph 1006.8mb 43f
9:15am 11 15 mph 1006.8mb 42f
9:10am 11 14 mph 1006.8mb 42f
9:00am 10 14 mph 1006.8mb 41f
8:50am 10 15 mph 1007.1mb 43f
8:40am 11 13 mph 1006.8mb 42f
8:30am 11 13 mph 1006.8mb 43f
7:40am 11 14 mph 1006.8mb 41f
7:30am 13 15 mph 1006.8mb 40f
7:20am 13 14 mph 1006.8mb 40f
7:15am 13 15 mph 1006.8mb 40f
7:10am 11 14 mph 1006.8mb 41f
7:00am 13 14 mph 1006.8mb 41f
6:50am 13 14 mph 1006.8mb 41f
6:40am 13 15 mph 1006.8mb 40f
6:30am 13 15 mph 1006.8mb 41f
6:20am 13 14 mph 1006.8mb 41f